Regional Weather Roundup
Issued by NWS

Home | Current Version | Previous Version | Text Only | Print | Product List | Glossary Off
Versions: 1 2 3 4 5 6 7 8 9 10 11 12 13 14 15 16 17 18 19 20 21 22 23 24 25 26 27 28 29 30 31 32 33 34 35 36 37 38 39 40 41 42 43 44 45 46 47 48 49 50

000
ASUS45 KPSR 211110
RWRAZ

ARIZONA HOURLY REGIONAL WEATHER ROUNDUP
NATIONAL WEATHER SERVICE PHOENIX AZ
400 AM MST SAT OCT 21 2017

NOTE: FAIR INDICATES FEW OR NO CLOUDS BELOW 12,000 FEET WITH NO
SIGNIFICANT WEATHER AND/OR OBSTRUCTIONS TO VISIBILITY.

AZZ001>003-036-211200-
NORTHWEST ARIZONA

CITY           SKY/WX    TMP DP  RH WIND       PRES   REMARKS
BULLHEAD CITY  CLEAR     70  10  10 N21       29.89R
KINGMAN        CLEAR     49  13  23 E10       29.98R
$$

AZZ004>008-015-016-018-211200-
NORTH CENTRAL ARIZONA

CITY           SKY/WX    TMP DP  RH WIND       PRES   REMARKS
GRAND CANYON   PTCLDY    31  28  89 CALM      30.04R
WILLIAMS       PTCLDY    36  34  93 CALM      30.04R
PRESCOTT       CLEAR     46  39  76 S6        29.98R
FLAGSTAFF      CLEAR     36  34  92 SW6       30.04R WCI  31
PAYSON         CLEAR     46  37  71 CALM      30.01R
PAGE           PTCLDY    50  17  27 W6        29.99R
$$

AZZ009>014-017-211200-
NORTHEAST ARIZONA

CITY           SKY/WX    TMP DP  RH WIND       PRES   REMARKS
WINSLOW        CLEAR     48  38  68 CALM      29.97R
SAINT JOHNS    CLEAR     49  37  63 NW6       29.98R
WINDOW ROCK    CLEAR     47  37  68 CALM      29.99R
SHOW LOW       CLEAR     45  37  76 S8        30.03R
$$

AZZ540-542>544-546-548-211200-
GREATER PHOENIX AREA

CITY           SKY/WX    TMP DP  RH WIND       PRES   REMARKS
PHOENIX        PTCLDY    68  47  46 W5        29.84R
BUCKEYE        MOCLDY    59  41  51 CALM      29.86S
LUKE AFB       CLEAR     65  46  50 S10       29.83R
DEER VALLEY    CLOUDY    63  45  51 S3        29.86R
SCOTTSDALE     CLEAR     66  44  45 CALM      29.88R
MESA-GATEWAY   CLEAR     63  43  48 E7        29.87R
$$

AZZ539-553-211200-
SOUTHWEST MARICOPA COUNTY AND PINAL COUNTY

CITY           SKY/WX    TMP DP  RH WIND       PRES   REMARKS
CASA GRANDE    NOT AVBL
$$

AZZ503-504-507>509-211200-
SOUTHEAST ARIZONA

CITY           SKY/WX    TMP DP  RH WIND       PRES   REMARKS
TUCSON         CLEAR     63  40  42 CALM      29.92R
DAVIS-MONTHAN  PTCLDY    58  39  50 CALM      29.90R
NOGALES        CLEAR     54  43  66 CALM      29.96R
SIERRA VISTA   CLEAR     55  44  66 W8        29.98F
DOUGLAS        CLEAR     58  45  62 W6        29.97R
SAFFORD        CLEAR     66  43  43 NW9       29.89R
$$

AZZ532-211200-
SOUTHWEST ARIZONA

CITY           SKY/WX    TMP DP  RH WIND       PRES   REMARKS
YUMA           MOCLDY    66  47  50 NW9       29.85R
$$

CAZ041-043-047-048-061-525>527-560>570-211200-
SOUTHERN CALIFORNIA

CITY           SKY/WX    TMP DP  RH WIND       PRES   REMARKS
DOWNTOWN L.A.  CLEAR     62  51  67 CALM      29.98S
L.A. AIRPORT   CLEAR     62  38  40 N8        29.98F
SAN DIEGO      PTCLDY    63  53  70 SE6       29.99F
BURBANK        CLEAR     57  33  40 CALM      29.99S
ONTARIO        PTCLDY    57  53  86 S3        29.98S
RIVERSIDE      CLEAR     57  53  86 CALM      29.99R
PALM SPRINGS   CLEAR     69  47  45 NW15      29.91R
EL CENTRO NAS  CLEAR     63  41  44 W5        29.88R
IMPERIAL       PTCLDY    61  43  51 W8        29.86R
BLYTHE         PTCLDY    64  33  31 N6        29.86S
NEEDLES        CLEAR     68  33  27 N5        29.90R
$$

NVZ020-UTZ003-211200-
SOUTHERN NEVADA-UTAH

CITY           SKY/WX    TMP DP  RH WIND       PRES   REMARKS
LAS VEGAS      CLEAR     62  11  13 NE14      30.00R
SALT LAKE CITY MOCLDY    45  29  53 CALM      30.10R
$$

NMZ009-TXZ055-211200-
NEW MEXICO-WEST TEXAS

CITY           SKY/WX    TMP DP  RH WIND       PRES   REMARKS
ALBUQUERQUE    CLOUDY    59  35  40 SW16      29.91R
EL PASO        PTCLDY    68  47  46 SW8       29.89R
$$


........................KEY........................
SKY/WX - SKY CONDITION/WEATHER
TMP    - TEMPERATURE IN FAHRENHEIT
DP     - DEW POINT IN FAHRENHEIT
RH     - RELATIVE HUMIDITY IN PERCENT
WIND   - DIRECTION AND SPEED IN MILES PER HOUR (MPH)
VRB    - VARIABLE WIND DIRECTION
PRES   - MEAN SEA LEVEL PRESSURE IN INCHES OF MERCURY
         F - FALLING PRESSURE   R - RISING PRESSURE
         S - STEADY PRESSURE
VSB    - VISIBILITY IN MILES
HX     - HEAT INDEX IN FAHRENHEIT
WCI    - WIND CHILL INDEX IN FAHRENHEIT
TC     - TEMPERATURE IN CELSIUS WHICH IS ALSO KNOWN AS
         TEMPERATURE IN CENTIGRADE
AFB    - AIR FORCE BASE
         LUKE AFB IS LUKE AIR FORCE BASE
         DAVIS-MONTHAN IS DAVIS-MONTHAN AIR FORCE BASE
NAS    - NAVAL AIR STATION
         EL CENTRO NAS IS EL CENTRO NAVAL AIR STATION
N/A    - NOT AVAILABLE




USA.gov is the U.S. government's official web portal to all federal, state and local government web resources and services.